| time (UTC) | temp F | wind direction | speed MPH | gust MPH | rain 1hr in | rain 24hr in | rain mn in | humidity % | barometer mb |
| 20260902221011 | 96 | 78 | 1.0 | 1.0 | 0.00 | 0.00 | 0.00 | 47 | 1015.1 |
| 20260902220511 | 97 | 57 | 0.0 | 0.0 | 0.00 | 0.00 | 0.00 | 47 | 1014.9 |
| 20260902220005 | 98 | 101 | 1.0 | 1.0 | 0.00 | 0.00 | 0.00 | 45 | 1015.1 |
| 20260902215501 | 98 | 61 | 0.0 | 0.0 | 0.00 | 0.00 | 0.00 | 46 | 1015.1 |
| 20260902214957 | 98 | 56 | 0.0 | 0.0 | 0.00 | 0.00 | 0.00 | 44 | 1014.9 |
| 20260902214456 | 97 | 84 | 2.0 | 2.0 | 0.00 | 0.00 | 0.00 | 45 | 1015.0 |
| 20260902213955 | 98 | 75 | 1.0 | 1.0 | 0.00 | 0.00 | 0.00 | 45 | 1015.2 |
| 20260902213452 | 98 | 29 | 1.0 | 1.0 | 0.00 | 0.00 | 0.00 | 44 | 1015.2 |
| 20260902212950 | 98 | 44 | 4.0 | 6.0 | 0.00 | 0.00 | 0.00 | 43 | 1015.4 |
| 20260902212447 | 97 | 56 | 0.0 | 0.0 | 0.00 | 0.00 | 0.00 | 49 | 1015.3 |
| 20260902211942 | 98 | 56 | 0.0 | 0.0 | 0.00 | 0.00 | 0.00 | 45 | 1015.2 |
| 20260902211438 | 99 | 48 | 1.0 | 1.0 | 0.00 | 0.00 | 0.00 | 43 | 1015.3 |
| 20260902210933 | 99 | 61 | 0.0 | 1.0 | 0.00 | 0.00 | 0.00 | 48 | 1015.4 |
| 20260902210428 | 99 | 40 | 1.0 | 1.0 | 0.00 | 0.00 | 0.00 | 41 | 1015.6 |
| 20260902205926 | 99 | 49 | 0.0 | 1.0 | 0.00 | 0.00 | 0.00 | 44 | 1015.4 |
| 20260902205416 | 99 | 73 | 2.0 | 3.0 | 0.00 | 0.00 | 0.00 | 44 | 1015.4 |
| 20260902204912 | 97 | 57 | 0.0 | 0.0 | 0.00 | 0.00 | 0.00 | 48 | 1015.5 |
| 20260902204411 | 98 | 195 | 0.0 | 1.0 | 0.00 | 0.00 | 0.00 | 45 | 1015.4 |
| 20260902203907 | 98 | 46 | 0.0 | 0.0 | 0.00 | 0.00 | 0.00 | 43 | 1015.5 |
| 20260902203402 | 99 | 59 | 1.0 | 2.0 | 0.00 | 0.00 | 0.00 | 44 | 1015.6 |
| 20260902202856 | 98 | 62 | 0.0 | 1.0 | 0.00 | 0.00 | 0.00 | 48 | 1015.7 |
| 20260902202352 | 96 | 56 | 0.0 | 0.0 | 0.00 | 0.00 | 0.00 | 48 | 1015.9 |
| 20260902201849 | 97 | 47 | 0.0 | 1.0 | 0.00 | 0.00 | 0.00 | 45 | 1015.8 |
| 20260902201348 | 99 | 63 | 2.0 | 3.0 | 0.00 | 0.00 | 0.00 | 43 | 1015.8 |
| 20260902200843 | 100 | 89 | 1.0 | 2.0 | 0.00 | 0.00 | 0.00 | 42 | 1015.9 |
| 20260902200339 | 99 | 57 | 0.0 | 0.0 | 0.00 | 0.00 | 0.00 | 44 | 1015.8 |
| 20260902195833 | 98 | 278 | 1.0 | 2.0 | 0.00 | 0.00 | 0.00 | 45 | 1016.0 |
| 20260902195333 | 98 | 211 | 1.0 | 2.0 | 0.00 | 0.00 | 0.00 | 43 | 1016.1 |
| 20260902194827 | 98 | 47 | 0.0 | 0.0 | 0.00 | 0.00 | 0.00 | 44 | 1016.1 |
| 20260902194322 | 99 | 128 | 2.0 | 2.0 | 0.00 | 0.00 | 0.00 | 44 | 1016.4 |
| 20260902193818 | 99 | 59 | 1.0 | 1.0 | 0.00 | 0.00 | 0.00 | 43 | 1016.5 |
| 20260902193314 | 99 | 64 | 1.0 | 1.0 | 0.00 | 0.00 | 0.00 | 44 | 1016.4 |
| 20260902192813 | 98 | 62 | 1.0 | 1.0 | 0.00 | 0.00 | 0.00 | 45 | 1016.5 |
| 20260902192311 | 97 | 56 | 0.0 | 0.0 | 0.00 | 0.00 | 0.00 | 49 | 1016.6 |
| 20260902191811 | 97 | 62 | 0.0 | 0.0 | 0.00 | 0.00 | 0.00 | 49 | 1016.6 |
| 20260902191306 | 98 | 58 | 2.0 | 2.0 | 0.00 | 0.00 | 0.00 | 46 | 1016.7 |
| 20260902190806 | 99 | 60 | 1.0 | 1.0 | 0.00 | 0.00 | 0.00 | 44 | 1016.7 |
| 20260902190305 | 100 | 131 | 3.0 | 3.0 | 0.00 | 0.00 | 0.00 | 43 | 1017.0 |
| 20260902185802 | 99 | 31 | 0.0 | 1.0 | 0.00 | 0.00 | 0.00 | 47 | 1017.0 |
| 20260902185258 | 98 | 82 | 1.0 | 2.0 | 0.00 | 0.00 | 0.00 | 45 | 1017.0 |
| 20260902184754 | 97 | 61 | 0.0 | 0.0 | 0.00 | 0.00 | 0.00 | 45 | 1017.0 |
| 20260902184249 | 97 | 39 | 0.0 | 0.0 | 0.00 | 0.00 | 0.00 | 45 | 1017.1 |
| 20260902183744 | 97 | 73 | 1.0 | 1.0 | 0.00 | 0.00 | 0.00 | 46 | 1017.0 |
| 20260902183240 | 96 | 67 | 0.0 | 0.0 | 0.00 | 0.00 | 0.00 | 45 | 1017.1 |
| 20260902182736 | 96 | 102 | 2.0 | 4.0 | 0.00 | 0.00 | 0.00 | 44 | 1017.1 |
| 20260902182232 | 97 | 57 | 0.0 | 0.0 | 0.00 | 0.00 | 0.00 | 46 | 1017.1 |
| 20260902181729 | 97 | 61 | 1.0 | 1.0 | 0.00 | 0.00 | 0.00 | 47 | 1017.0 |
| 20260902181228 | 96 | 96 | 1.0 | 1.0 | 0.00 | 0.00 | 0.00 | 45 | 1017.2 |
| 20260902180723 | 97 | 318 | 2.0 | 2.0 | 0.00 | 0.00 | 0.00 | 44 | 1017.4 |
| 20260902180219 | 99 | 25 | 1.0 | 1.0 | 0.00 | 0.00 | 0.00 | 42 | 1017.4 |
| 20260902175719 | 99 | 43 | 0.0 | 1.0 | 0.00 | 0.00 | 0.00 | 49 | 1017.3 |
| 20260902175215 | 98 | 43 | 1.0 | 1.0 | 0.00 | 0.00 | 0.00 | 45 | 1017.4 |
| 20260902174710 | 97 | 83 | 2.0 | 2.0 | 0.00 | 0.00 | 0.00 | 47 | 1017.7 |
| 20260902174206 | 97 | 93 | 2.0 | 2.0 | 0.00 | 0.00 | 0.00 | 43 | 1017.7 |
| 20260902173702 | 97 | 55 | 0.0 | 0.0 | 0.00 | 0.00 | 0.00 | 45 | 1017.6 |
| 20260902173156 | 99 | 68 | 0.0 | 1.0 | 0.00 | 0.00 | 0.00 | 42 | 1017.6 |
| 20260902172656 | 99 | 78 | 0.0 | 0.0 | 0.00 | 0.00 | 0.00 | 47 | 1017.6 |
| 20260902172155 | 99 | 39 | 2.0 | 2.0 | 0.00 | 0.00 | 0.00 | 46 | 1017.7 |
| 20260902171651 | 98 | 52 | 0.0 | 0.0 | 0.00 | 0.00 | 0.00 | 47 | 1017.9 |
| 20260902171147 | 97 | 35 | 1.0 | 1.0 | 0.00 | 0.00 | 0.00 | 47 | 1018.0 |
| 20260902170643 | 96 | 38 | 0.0 | 1.0 | 0.00 | 0.00 | 0.00 | 47 | 1017.9 |
| 20260902170138 | 98 | 22 | 2.0 | 2.0 | 0.00 | 0.00 | 0.00 | 44 | 1018.1 |
| 20260902165633 | 98 | 78 | 0.0 | 1.0 | 0.00 | 0.00 | 0.00 | 51 | 1018.3 |
| 20260902165132 | 96 | 42 | 1.0 | 2.0 | 0.00 | 0.00 | 0.00 | 50 | 1018.3 |
| 20260902164627 | 96 | 62 | 0.0 | 0.0 | 0.00 | 0.00 | 0.00 | 50 | 1018.2 |
| 20260902164126 | 96 | 115 | 1.0 | 1.0 | 0.00 | 0.00 | 0.00 | 47 | 1018.2 |
| 20260902163622 | 97 | 21 | 1.0 | 2.0 | 0.00 | 0.00 | 0.00 | 50 | 1018.2 |
| 20260902163120 | 97 | 63 | 0.0 | 0.0 | 0.00 | 0.00 | 0.00 | 49 | 1018.3 |
| 20260902162620 | 96 | 56 | 0.0 | 0.0 | 0.00 | 0.00 | 0.00 | 52 | 1018.3 |
| 20260902162115 | 96 | 69 | 0.0 | 1.0 | 0.00 | 0.00 | 0.00 | 52 | 1018.4 |
| 20260902161609 | 96 | 14 | 2.0 | 2.0 | 0.00 | 0.00 | 0.00 | 52 | 1018.6 |
| 20260902161106 | 95 | 19 | 1.0 | 2.0 | 0.00 | 0.00 | 0.00 | 50 | 1018.5 |
| 20260902160602 | 96 | 19 | 1.0 | 1.0 | 0.00 | 0.00 | 0.00 | 49 | 1018.6 |
| 20260902160057 | 95 | 31 | 0.0 | 1.0 | 0.00 | 0.00 | 0.00 | 52 | 1018.5 |
| 20260902155555 | 94 | 17 | 1.0 | 2.0 | 0.00 | 0.00 | 0.00 | 52 | 1018.5 |
| 20260902155054 | 94 | 95 | 1.0 | 1.0 | 0.00 | 0.00 | 0.00 | 52 | 1018.9 |
| 20260902154550 | 94 | 78 | 1.0 | 2.0 | 0.00 | 0.00 | 0.00 | 53 | 1018.6 |
| 20260902154050 | 94 | 48 | 0.0 | 0.0 | 0.00 | 0.00 | 0.00 | 53 | 1018.9 |
| 20260902153548 | 93 | 96 | 1.0 | 1.0 | 0.00 | 0.00 | 0.00 | 54 | 1018.8 |
| 20260902153044 | 93 | 109 | 1.0 | 1.0 | 0.00 | 0.00 | 0.00 | 55 | 1018.7 |
| 20260902152541 | 93 | 1 | 2.0 | 3.0 | 0.00 | 0.00 | 0.00 | 55 | 1018.8 |
| 20260902152036 | 92 | 229 | 1.0 | 2.0 | 0.00 | 0.00 | 0.00 | 55 | 1018.8 |
| 20260902151532 | 93 | 45 | 1.0 | 2.0 | 0.00 | 0.00 | 0.00 | 54 | 1018.7 |
| 20260902151030 | 94 | 181 | 2.0 | 2.0 | 0.00 | 0.00 | 0.00 | 53 | 1018.7 |
| 20260902150526 | 95 | 19 | 1.0 | 1.0 | 0.00 | 0.00 | 0.00 | 52 | 1018.6 |
| 20260902150021 | 93 | 63 | 0.0 | 0.0 | 0.00 | 0.00 | 0.00 | 55 | 1018.8 |
| 20260902145516 | 92 | 64 | 0.0 | 0.0 | 0.00 | 0.00 | 0.00 | 57 | 1018.9 |
| 20260902145010 | 91 | 14 | 1.0 | 2.0 | 0.00 | 0.00 | 0.00 | 56 | 1018.6 |
| 20260902144507 | 91 | 7 | 1.0 | 2.0 | 0.00 | 0.00 | 0.00 | 59 | 1018.6 |
| 20260902144002 | 90 | 321 | 2.0 | 2.0 | 0.00 | 0.00 | 0.00 | 58 | 1018.9 |
| 20260902143457 | 89 | 41 | 2.0 | 2.0 | 0.00 | 0.00 | 0.00 | 60 | 1018.7 |
| 20260902142952 | 91 | 323 | 2.0 | 3.0 | 0.00 | 0.00 | 0.00 | 58 | 1018.8 |
| 20260902142448 | 89 | 67 | 0.0 | 0.0 | 0.00 | 0.00 | 0.00 | 61 | 1018.7 |
| 20260902141943 | 89 | 88 | 0.0 | 1.0 | 0.00 | 0.00 | 0.00 | 62 | 1018.7 |
| 20260902141438 | 88 | 67 | 0.0 | 1.0 | 0.00 | 0.00 | 0.00 | 64 | 1018.8 |
| 20260902140937 | 87 | 67 | 0.0 | 1.0 | 0.00 | 0.00 | 0.00 | 63 | 1018.6 |
| 20260902140433 | 87 | 89 | 2.0 | 3.0 | 0.00 | 0.00 | 0.00 | 64 | 1018.8 |
| 20260902135932 | 87 | 31 | 2.0 | 2.0 | 0.00 | 0.00 | 0.00 | 64 | 1018.7 |
| 20260902135429 | 86 | 47 | 0.0 | 1.0 | 0.00 | 0.00 | 0.00 | 65 | 1018.8 |
| 20260902134927 | 87 | 48 | 0.0 | 1.0 | 0.00 | 0.00 | 0.00 | 67 | 1018.7 |
| 20260902134424 | 85 | 70 | 0.0 | 0.0 | 0.00 | 0.00 | 0.00 | 69 | 1018.7 |
| 20260902133919 | 85 | 349 | 0.0 | 1.0 | 0.00 | 0.00 | 0.00 | 67 | 1018.7 |
| 20260902133418 | 84 | 87 | 0.0 | 1.0 | 0.00 | 0.00 | 0.00 | 72 | 1018.9 |
| 20260902132913 | 83 | 80 | 1.0 | 1.0 | 0.00 | 0.00 | 0.00 | 72 | 1018.8 |
| 20260902132408 | 82 | 119 | 1.0 | 1.0 | 0.00 | 0.00 | 0.00 | 74 | 1018.8 |
| 20260902131903 | 82 | 58 | 0.0 | 0.0 | 0.00 | 0.00 | 0.00 | 76 | 1018.7 |
| 20260902131400 | 82 | 62 | 0.0 | 0.0 | 0.00 | 0.00 | 0.00 | 77 | 1018.8 |
| 20260902130859 | 83 | 54 | 0.0 | 0.0 | 0.00 | 0.00 | 0.00 | 74 | 1018.9 |
| 20260902130356 | 83 | 67 | 0.0 | 0.0 | 0.00 | 0.00 | 0.00 | 74 | 1018.7 |
| 20260902125850 | 82 | 66 | 0.0 | 0.0 | 0.00 | 0.00 | 0.00 | 77 | 1018.5 |
| 20260902125346 | 80 | 53 | 0.0 | 0.0 | 0.00 | 0.00 | 0.00 | 79 | 1018.6 |
| 20260902124842 | 79 | 60 | 0.0 | 0.0 | 0.00 | 0.00 | 0.00 | 82 | 1018.6 |
| 20260902124338 | 78 | 59 | 0.0 | 0.0 | 0.00 | 0.00 | 0.00 | 85 | 1018.5 |
| 20260902123833 | 77 | 60 | 0.0 | 0.0 | 0.00 | 0.00 | 0.00 | 86 | 1018.6 |
| 20260902123329 | 76 | 43 | 0.0 | 0.0 | 0.00 | 0.00 | 0.00 | 89 | 1018.5 |
| 20260902122827 | 75 | 57 | 0.0 | 0.0 | 0.00 | 0.00 | 0.00 | 93 | 1018.4 |
| 20260902122324 | 74 | 58 | 0.0 | 0.0 | 0.00 | 0.00 | 0.00 | 94 | 1018.5 |
| 20260902121823 | 73 | 58 | 0.0 | 0.0 | 0.00 | 0.00 | 0.00 | 95 | 1018.5 |
| 20260902121319 | 73 | 58 | 0.0 | 0.0 | 0.00 | 0.00 | 0.00 | 95 | 1018.2 |
| 20260902120814 | 73 | 58 | 0.0 | 0.0 | 0.00 | 0.00 | 0.00 | 95 | 1018.3 |
| 20260902120311 | 73 | 58 | 0.0 | 0.0 | 0.00 | 0.00 | 0.00 | 96 | 1018.1 |
| 20260902115810 | 72 | 58 | 0.0 | 0.0 | 0.00 | 0.00 | 0.00 | 96 | 1018.2 |
| 20260902115309 | 72 | 58 | 0.0 | 0.0 | 0.00 | 0.00 | 0.00 | 96 | 1018.1 |
| 20260902114803 | 72 | 58 | 0.0 | 0.0 | 0.00 | 0.00 | 0.00 | 96 | 1018.0 |
| 20260902114300 | 72 | 58 | 0.0 | 0.0 | 0.00 | 0.00 | 0.00 | 96 | 1018.0 |
| 20260902113754 | 72 | 58 | 0.0 | 0.0 | 0.00 | 0.00 | 0.00 | 96 | 1018.1 |
| 20260902113249 | 72 | 58 | 0.0 | 0.0 | 0.00 | 0.00 | 0.00 | 96 | 1018.1 |
| 20260902112748 | 72 | 58 | 0.0 | 0.0 | 0.00 | 0.00 | 0.00 | 96 | 1018.0 |
| 20260902112246 | 72 | 58 | 0.0 | 0.0 | 0.00 | 0.00 | 0.00 | 96 | 1018.0 |
| 20260902111746 | 72 | 58 | 0.0 | 0.0 | 0.00 | 0.00 | 0.00 | 96 | 1017.7 |
| 20260902111242 | 72 | 58 | 0.0 | 0.0 | 0.00 | 0.00 | 0.00 | 96 | 1017.8 |
| 20260902110738 | 72 | 58 | 0.0 | 0.0 | 0.00 | 0.00 | 0.00 | 96 | 1017.9 |
| 20260902110234 | 72 | 58 | 0.0 | 0.0 | 0.00 | 0.00 | 0.00 | 96 | 1017.8 |
| 20260902105733 | 72 | 58 | 0.0 | 0.0 | 0.00 | 0.00 | 0.00 | 96 | 1017.9 |
| 20260902105229 | 72 | 58 | 0.0 | 0.0 | 0.00 | 0.00 | 0.00 | 96 | 1017.7 |
| 20260902104724 | 72 | 58 | 0.0 | 0.0 | 0.00 | 0.00 | 0.00 | 96 | 1017.6 |
| 20260902104220 | 72 | 58 | 0.0 | 0.0 | 0.00 | 0.00 | 0.00 | 96 | 1017.6 |
| 20260902103719 | 72 | 58 | 0.0 | 0.0 | 0.00 | 0.00 | 0.00 | 96 | 1017.5 |
| 20260902103214 | 72 | 58 | 0.0 | 0.0 | 0.00 | 0.00 | 0.00 | 96 | 1017.4 |
| 20260902102709 | 72 | 58 | 0.0 | 0.0 | 0.00 | 0.00 | 0.00 | 95 | 1017.5 |
| 20260902102207 | 72 | 58 | 0.0 | 0.0 | 0.00 | 0.00 | 0.00 | 95 | 1017.4 |
| 20260902101707 | 72 | 58 | 0.0 | 0.0 | 0.00 | 0.00 | 0.00 | 95 | 1017.4 |
| 20260902101202 | 73 | 58 | 0.0 | 0.0 | 0.00 | 0.00 | 0.00 | 95 | 1017.3 |
| 20260902100701 | 73 | 58 | 0.0 | 0.0 | 0.00 | 0.00 | 0.00 | 95 | 1017.3 |
| 20260902100156 | 73 | 58 | 0.0 | 0.0 | 0.00 | 0.00 | 0.00 | 94 | 1017.4 |
| 20260902095655 | 73 | 58 | 0.0 | 0.0 | 0.00 | 0.00 | 0.00 | 94 | 1017.2 |
| 20260902095149 | 73 | 58 | 0.0 | 0.0 | 0.00 | 0.00 | 0.00 | 94 | 1017.2 |
| 20260902094645 | 73 | 58 | 0.0 | 0.0 | 0.00 | 0.00 | 0.00 | 93 | 1017.1 |
| 20260902094141 | 73 | 58 | 0.0 | 0.0 | 0.00 | 0.00 | 0.00 | 93 | 1017.2 |
| 20260902093640 | 73 | 58 | 0.0 | 0.0 | 0.00 | 0.00 | 0.00 | 92 | 1016.9 |
| 20260902093135 | 73 | 58 | 0.0 | 0.0 | 0.00 | 0.00 | 0.00 | 92 | 1017.1 |
| 20260902092630 | 74 | 58 | 0.0 | 0.0 | 0.00 | 0.00 | 0.00 | 92 | 1017.1 |
| 20260902092125 | 74 | 58 | 0.0 | 0.0 | 0.00 | 0.00 | 0.00 | 91 | 1017.1 |
| 20260902091620 | 74 | 58 | 0.0 | 0.0 | 0.00 | 0.00 | 0.00 | 90 | 1016.9 |
| 20260902091116 | 74 | 58 | 0.0 | 0.0 | 0.00 | 0.00 | 0.00 | 91 | 1016.9 |
| 20260902090612 | 74 | 58 | 0.0 | 0.0 | 0.00 | 0.00 | 0.00 | 91 | 1017.0 |
| 20260902090112 | 74 | 58 | 0.0 | 0.0 | 0.00 | 0.00 | 0.00 | 91 | 1017.1 |
| 20260902085612 | 74 | 58 | 0.0 | 0.0 | 0.00 | 0.00 | 0.00 | 91 | 1017.2 |
| 20260902085107 | 74 | 58 | 0.0 | 0.0 | 0.00 | 0.00 | 0.00 | 90 | 1016.9 |
| 20260902084603 | 75 | 58 | 0.0 | 0.0 | 0.00 | 0.00 | 0.00 | 89 | 1016.9 |
| 20260902084059 | 75 | 58 | 0.0 | 0.0 | 0.00 | 0.00 | 0.00 | 88 | 1016.7 |
| 20260902083554 | 75 | 58 | 0.0 | 0.0 | 0.00 | 0.00 | 0.00 | 88 | 1016.8 |
| 20260902083053 | 76 | 58 | 0.0 | 0.0 | 0.00 | 0.00 | 0.00 | 88 | 1016.9 |
| 20260902082549 | 76 | 58 | 0.0 | 0.0 | 0.00 | 0.00 | 0.00 | 88 | 1016.8 |
| 20260902082045 | 76 | 58 | 0.0 | 0.0 | 0.00 | 0.00 | 0.00 | 88 | 1016.8 |
| 20260902081542 | 76 | 58 | 0.0 | 0.0 | 0.00 | 0.00 | 0.00 | 88 | 1016.9 |
| 20260902081041 | 76 | 58 | 0.0 | 0.0 | 0.00 | 0.00 | 0.00 | 88 | 1016.8 |
| 20260902080537 | 76 | 58 | 0.0 | 0.0 | 0.00 | 0.00 | 0.00 | 88 | 1016.8 |
| 20260902080033 | 76 | 58 | 0.0 | 0.0 | 0.00 | 0.00 | 0.00 | 88 | 1016.9 |
| 20260902075532 | 76 | 58 | 0.0 | 0.0 | 0.00 | 0.00 | 0.00 | 88 | 1016.9 |
| 20260902075029 | 76 | 58 | 0.0 | 0.0 | 0.00 | 0.00 | 0.00 | 88 | 1016.9 |
| 20260902074525 | 76 | 58 | 0.0 | 0.0 | 0.00 | 0.00 | 0.00 | 88 | 1016.7 |
| 20260902074025 | 76 | 58 | 0.0 | 0.0 | 0.00 | 0.00 | 0.00 | 87 | 1016.8 |
| 20260902073520 | 76 | 58 | 0.0 | 0.0 | 0.00 | 0.00 | 0.00 | 87 | 1017.0 |
| 20260902073018 | 76 | 58 | 0.0 | 0.0 | 0.00 | 0.00 | 0.00 | 87 | 1016.7 |
| 20260902072518 | 76 | 58 | 0.0 | 0.0 | 0.00 | 0.00 | 0.00 | 87 | 1017.0 |
| 20260902072015 | 76 | 58 | 0.0 | 0.0 | 0.00 | 0.00 | 0.00 | 87 | 1017.0 |
| 20260902071514 | 77 | 57 | 0.0 | 0.0 | 0.00 | 0.00 | 0.00 | 86 | 1017.0 |
| 20260902071011 | 77 | 57 | 0.0 | 0.0 | 0.00 | 0.00 | 0.00 | 86 | 1017.0 |
| 20260902070506 | 77 | 57 | 0.0 | 0.0 | 0.00 | 0.00 | 0.00 | 86 | 1017.0 |
| 20260902070007 | 77 | 57 | 0.0 | 0.0 | 0.00 | 0.00 | 0.00 | 87 | 1016.8 |
| 20260902065459 | 77 | 57 | 0.0 | 0.0 | 0.00 | 0.00 | 0.00 | 86 | 1017.2 |
| 20260902064954 | 77 | 57 | 0.0 | 0.0 | 0.00 | 0.00 | 0.00 | 86 | 1017.1 |
| 20260902064450 | 77 | 57 | 0.0 | 0.0 | 0.00 | 0.00 | 0.00 | 86 | 1017.1 |
| 20260902063946 | 77 | 57 | 0.0 | 0.0 | 0.00 | 0.00 | 0.00 | 86 | 1017.1 |
| 20260902063445 | 77 | 57 | 0.0 | 0.0 | 0.00 | 0.00 | 0.00 | 86 | 1017.0 |
| 20260902062941 | 77 | 57 | 0.0 | 0.0 | 0.00 | 0.00 | 0.00 | 86 | 1016.9 |
| 20260902062439 | 77 | 57 | 0.0 | 0.0 | 0.00 | 0.00 | 0.00 | 85 | 1016.9 |
| 20260902061935 | 77 | 57 | 0.0 | 0.0 | 0.00 | 0.00 | 0.00 | 86 | 1016.9 |
| 20260902061430 | 77 | 57 | 0.0 | 0.0 | 0.00 | 0.00 | 0.00 | 86 | 1016.8 |
| 20260902060926 | 77 | 57 | 0.0 | 0.0 | 0.00 | 0.00 | 0.00 | 85 | 1016.8 |
| 20260902060422 | 77 | 57 | 0.0 | 0.0 | 0.00 | 0.00 | 0.00 | 85 | 1016.8 |
| 20260902055917 | 78 | 57 | 0.0 | 0.0 | 0.00 | 0.00 | 0.00 | 84 | 1016.7 |
| 20260902055414 | 78 | 57 | 0.0 | 0.0 | 0.00 | 0.00 | 0.00 | 83 | 1017.0 |
| 20260902054909 | 78 | 57 | 0.0 | 0.0 | 0.00 | 0.00 | 0.00 | 83 | 1016.7 |
| 20260902054403 | 78 | 57 | 0.0 | 0.0 | 0.00 | 0.00 | 0.00 | 83 | 1016.6 |
| 20260902053859 | 78 | 57 | 0.0 | 0.0 | 0.00 | 0.00 | 0.00 | 82 | 1016.9 |
| 20260902053354 | 79 | 57 | 0.0 | 0.0 | 0.00 | 0.00 | 0.00 | 82 | 1016.6 |
| 20260902052853 | 79 | 57 | 0.0 | 0.0 | 0.00 | 0.00 | 0.00 | 82 | 1016.8 |
| 20260902052348 | 79 | 57 | 0.0 | 0.0 | 0.00 | 0.00 | 0.00 | 81 | 1016.8 |
| 20260902051843 | 79 | 57 | 0.0 | 0.0 | 0.00 | 0.00 | 0.00 | 80 | 1016.7 |
| 20260902051337 | 80 | 57 | 0.0 | 0.0 | 0.00 | 0.00 | 0.00 | 80 | 1016.8 |
| 20260902050832 | 80 | 57 | 0.0 | 0.0 | 0.00 | 0.00 | 0.00 | 79 | 1016.8 |
| 20260902050331 | 80 | 57 | 0.0 | 0.0 | 0.00 | 0.00 | 0.00 | 78 | 1016.7 |
| 20260902045827 | 80 | 56 | 0.0 | 0.0 | 0.00 | 0.00 | 0.00 | 78 | 1016.6 |
| 20260902045322 | 80 | 57 | 0.0 | 0.0 | 0.00 | 0.00 | 0.00 | 78 | 1016.6 |
| 20260902044818 | 80 | 61 | 0.0 | 0.0 | 0.00 | 0.00 | 0.00 | 78 | 1016.5 |
| 20260902044314 | 80 | 65 | 0.0 | 0.0 | 0.00 | 0.00 | 0.00 | 79 | 1016.6 |
| 20260902043808 | 80 | 65 | 0.0 | 0.0 | 0.00 | 0.00 | 0.00 | 79 | 1016.6 |
| 20260902043304 | 80 | 61 | 0.0 | 0.0 | 0.00 | 0.00 | 0.00 | 78 | 1016.6 |
| 20260902042803 | 80 | 65 | 0.0 | 0.0 | 0.00 | 0.00 | 0.00 | 79 | 1016.8 |
| 20260902042258 | 80 | 66 | 0.0 | 0.0 | 0.00 | 0.00 | 0.00 | 79 | 1016.7 |
| 20260902041753 | 80 | 66 | 0.0 | 0.0 | 0.00 | 0.00 | 0.00 | 79 | 1016.7 |
| 20260902041253 | 80 | 66 | 0.0 | 0.0 | 0.00 | 0.00 | 0.00 | 78 | 1016.4 |
| 20260902040752 | 80 | 66 | 0.0 | 0.0 | 0.00 | 0.00 | 0.00 | 78 | 1016.7 |
| 20260902040248 | 80 | 65 | 0.0 | 0.0 | 0.00 | 0.00 | 0.00 | 79 | 1016.7 |
| 20260902035746 | 80 | 65 | 0.0 | 0.0 | 0.00 | 0.00 | 0.00 | 78 | 1016.6 |
| 20260902035242 | 80 | 65 | 0.0 | 0.0 | 0.00 | 0.00 | 0.00 | 78 | 1016.7 |
| 20260902034741 | 80 | 65 | 0.0 | 0.0 | 0.00 | 0.00 | 0.00 | 77 | 1016.7 |
| 20260902034236 | 80 | 65 | 0.0 | 0.0 | 0.00 | 0.00 | 0.00 | 77 | 1016.8 |
| 20260902033734 | 80 | 65 | 0.0 | 0.0 | 0.00 | 0.00 | 0.00 | 77 | 1016.9 |
| 20260902033229 | 80 | 67 | 0.0 | 0.0 | 0.00 | 0.00 | 0.00 | 78 | 1016.8 |
| 20260902032728 | 80 | 67 | 0.0 | 0.0 | 0.00 | 0.00 | 0.00 | 78 | 1016.6 |
| 20260902032223 | 80 | 67 | 0.0 | 0.0 | 0.00 | 0.00 | 0.00 | 78 | 1016.9 |
| 20260902031722 | 80 | 67 | 0.0 | 0.0 | 0.00 | 0.00 | 0.00 | 78 | 1016.9 |
| 20260902031218 | 80 | 67 | 0.0 | 0.0 | 0.00 | 0.00 | 0.00 | 78 | 1016.9 |
| 20260902030714 | 81 | 67 | 0.0 | 0.0 | 0.00 | 0.00 | 0.00 | 78 | 1017.0 |
| 20260902030213 | 81 | 67 | 0.0 | 0.0 | 0.00 | 0.00 | 0.00 | 78 | 1016.9 |
| 20260902025713 | 81 | 67 | 0.0 | 0.0 | 0.00 | 0.00 | 0.00 | 78 | 1016.9 |
| 20260902025209 | 81 | 67 | 0.0 | 0.0 | 0.00 | 0.00 | 0.00 | 77 | 1016.6 |
| 20260902024709 | 82 | 67 | 0.0 | 0.0 | 0.00 | 0.00 | 0.00 | 77 | 1016.8 |
| 20260902024204 | 82 | 67 | 0.0 | 0.0 | 0.00 | 0.00 | 0.00 | 77 | 1016.8 |
| 20260902023659 | 82 | 67 | 0.0 | 0.0 | 0.00 | 0.00 | 0.00 | 76 | 1016.8 |
| 20260902023154 | 82 | 53 | 0.0 | 0.0 | 0.00 | 0.00 | 0.00 | 76 | 1016.7 |
| 20260902022654 | 82 | 60 | 0.0 | 0.0 | 0.00 | 0.00 | 0.00 | 76 | 1016.7 |
| 20260902022150 | 82 | 60 | 0.0 | 0.0 | 0.00 | 0.00 | 0.00 | 76 | 1016.7 |
| 20260902021646 | 83 | 57 | 0.0 | 0.0 | 0.00 | 0.00 | 0.00 | 75 | 1016.7 |
| 20260902021146 | 83 | 58 | 0.0 | 0.0 | 0.00 | 0.00 | 0.00 | 75 | 1016.7 |
| 20260902020642 | 83 | 58 | 0.0 | 0.0 | 0.00 | 0.00 | 0.00 | 75 | 1016.7 |
| 20260902020138 | 83 | 58 | 0.0 | 0.0 | 0.00 | 0.00 | 0.00 | 75 | 1016.6 |
| 20260902015633 | 83 | 58 | 0.0 | 0.0 | 0.00 | 0.00 | 0.00 | 75 | 1016.7 |
| 20260902015130 | 83 | 58 | 0.0 | 0.0 | 0.00 | 0.00 | 0.00 | 75 | 1016.7 |
| 20260902014625 | 83 | 58 | 0.0 | 0.0 | 0.00 | 0.00 | 0.00 | 74 | 1016.5 |
| 20260902014120 | 83 | 58 | 0.0 | 0.0 | 0.00 | 0.00 | 0.00 | 73 | 1016.7 |
| 20260902013619 | 84 | 58 | 0.0 | 0.0 | 0.00 | 0.00 | 0.00 | 73 | 1016.3 |
| 20260902013115 | 84 | 58 | 0.0 | 0.0 | 0.00 | 0.00 | 0.00 | 73 | 1016.6 |
| 20260902012610 | 84 | 58 | 0.0 | 0.0 | 0.00 | 0.00 | 0.00 | 72 | 1016.5 |
| 20260902012106 | 84 | 58 | 0.0 | 0.0 | 0.00 | 0.00 | 0.00 | 72 | 1016.5 |
| 20260902011601 | 84 | 65 | 0.0 | 0.0 | 0.00 | 0.00 | 0.00 | 72 | 1016.4 |
| 20260902011100 | 84 | 64 | 0.0 | 0.0 | 0.00 | 0.00 | 0.00 | 72 | 1016.3 |
| 20260902010555 | 84 | 67 | 0.0 | 0.0 | 0.00 | 0.00 | 0.00 | 72 | 1016.1 |
| 20260902010051 | 84 | 60 | 0.0 | 0.0 | 0.00 | 0.00 | 0.00 | 71 | 1016.0 |
| 20260902005548 | 85 | 60 | 0.0 | 0.0 | 0.00 | 0.00 | 0.00 | 71 | 1016.1 |
| 20260902005045 | 84 | 60 | 0.0 | 0.0 | 0.00 | 0.00 | 0.00 | 71 | 1016.0 |
| 20260902004544 | 85 | 59 | 0.0 | 0.0 | 0.00 | 0.00 | 0.00 | 71 | 1015.9 |
| 20260902004039 | 85 | 59 | 0.0 | 0.0 | 0.00 | 0.00 | 0.00 | 70 | 1016.1 |
| 20260902003535 | 85 | 58 | 0.0 | 0.0 | 0.00 | 0.00 | 0.00 | 70 | 1016.1 |
| 20260902003030 | 85 | 58 | 0.0 | 0.0 | 0.00 | 0.00 | 0.00 | 69 | 1016.1 |
| 20260902002526 | 86 | 58 | 0.0 | 0.0 | 0.00 | 0.00 | 0.00 | 69 | 1016.1 |
| 20260902002020 | 86 | 58 | 0.0 | 0.0 | 0.00 | 0.00 | 0.00 | 69 | 1015.9 |
| 20260902001514 | 86 | 55 | 0.0 | 0.0 | 0.00 | 0.00 | 0.00 | 68 | 1015.9 |
| 20260902001010 | 87 | 55 | 0.0 | 0.0 | 0.00 | 0.00 | 0.00 | 66 | 1016.0 |
| 20260902000505 | 87 | 55 | 0.0 | 0.0 | 0.00 | 0.00 | 0.00 | 65 | 1016.3 |
| 20260901235959 | 88 | 55 | 0.0 | 0.0 | 0.00 | 0.00 | 0.00 | 64 | 1016.3 |
| 20260901235455 | 89 | 55 | 0.0 | 0.0 | 0.00 | 0.00 | 0.00 | 63 | 1016.4 |
| 20260901234950 | 89 | 55 | 0.0 | 0.0 | 0.00 | 0.00 | 0.00 | 62 | 1016.0 |
| 20260901234449 | 90 | 55 | 0.0 | 0.0 | 0.00 | 0.00 | 0.00 | 61 | 1016.1 |
| 20260901233944 | 90 | 55 | 0.0 | 0.0 | 0.00 | 0.00 | 0.00 | 60 | 1016.5 |
| 20260901233444 | 91 | 55 | 0.0 | 0.0 | 0.00 | 0.00 | 0.00 | 58 | 1016.4 |
| 20260901232941 | 91 | 55 | 0.0 | 0.0 | 0.00 | 0.00 | 0.00 | 59 | 1016.4 |
| 20260901232436 | 92 | 62 | 0.0 | 0.0 | 0.00 | 0.00 | 0.00 | 57 | 1016.1 |
| 20260901231931 | 92 | 55 | 0.0 | 0.0 | 0.00 | 0.00 | 0.00 | 56 | 1016.3 |
| 20260901231427 | 93 | 56 | 0.0 | 0.0 | 0.00 | 0.00 | 0.00 | 54 | 1016.4 |
| 20260901230924 | 94 | 55 | 0.0 | 0.0 | 0.00 | 0.00 | 0.00 | 53 | 1016.0 |
| 20260901230423 | 94 | 53 | 0.0 | 0.0 | 0.00 | 0.00 | 0.00 | 53 | 1016.1 |
| 20260901225919 | 95 | 69 | 1.0 | 1.0 | 0.00 | 0.00 | 0.00 | 52 | 1016.1 |
| 20260901225418 | 95 | 53 | 0.0 | 1.0 | 0.00 | 0.00 | 0.00 | 52 | 1016.0 |
| 20260901224913 | 95 | 44 | 1.0 | 2.0 | 0.00 | 0.00 | 0.00 | 50 | 1016.3 |
| 20260901224410 | 96 | 50 | 0.0 | 0.0 | 0.00 | 0.00 | 0.00 | 50 | 1016.1 |
| 20260901223906 | 96 | 45 | 1.0 | 1.0 | 0.00 | 0.00 | 0.00 | 48 | 1016.3 |
| 20260901223401 | 96 | 51 | 0.0 | 1.0 | 0.00 | 0.00 | 0.00 | 51 | 1016.1 |
| 20260901222856 | 96 | 51 | 0.0 | 0.0 | 0.00 | 0.00 | 0.00 | 50 | 1016.3 |
| 20260901222353 | 98 | 47 | 1.0 | 1.0 | 0.00 | 0.00 | 0.00 | 48 | 1015.9 |
| 20260901221848 | 98 | 46 | 0.0 | 0.0 | 0.00 | 0.00 | 0.00 | 48 | 1016.3 |